BEIDOU 12 (C11)

Last updated on Jan. 18, 2020, 4:39 a.m. UTC

1 38250U 12018A   20016.92916769 -.00000065  00000-0  10000-3 0  9994
2 38250  56.6966  22.7191 0024697 242.9236 114.0636  1.86232912 52648
UTC
Height (km)
Latitude
Longitude
Inclination
Orbital Period
UTC large
Height (km)
Speed (km/s)
/
Latitude / Longitude
Inclination (degrees)
Orbital Period (minutes)
Azimuth
Elevation
Range (km)
Doppler Factor
iOS Compass Heading
iOS Angle

Next 30 passes for location: Hong Kong

Rise time Rise Azimuth (degrees) Set time Set Azimuth (degrees) Duration Max altitude (degrees)

No matching passes for this satellites